Hourly Data Report for October 04, 2017

All times are specified in Local Standard Time (LST). Add 1 hour to adjust for Daylight Saving Time where and when it is observed.

ARVIAT A
NUNAVUT

61°05'38.000" N
94°04'18.000" W
10.40 m
2300427
71174
YEK

Related Data

No related data is available for this station

Download Data

Hourly Data (October 2017)
Hourly Data Report for October 4, 2017
Temp Definition
°C
Dew Point Temp Definition
°C
Rel Hum Definition
%
Wind Dir Definition
10's deg

Wind Spd Definition
km/h
Visibility Definition
km
Stn Press Definition
kPa
Hmdx Definition


Wind Chill Definition


Weather Definition


TIME
00:00 Legend Double Dagger 0.4 -1.5 87 24 15 16.1 100.86     LegendNANA
01:00 Legend Double Dagger -0.1 -0.7 96 23 9 11.3 100.78   -3 Rain,Snow
02:00 Legend Double Dagger -0.2 -0.5 98 24 4 8.1 100.72   -1 Snow
03:00 Legend Double Dagger -0.4 -0.7 98 30 4 3.6 100.67   -2 Snow
04:00 Legend Double Dagger -0.5 -0.8 98 35 21 6.4 100.64   -6 Snow
05:00 Legend Double Dagger -1.1 -2.6 90 1 28 8.1 100.63   -8 Snow
06:00 Legend Double Dagger -1.9 -4.5 82 36 34 16.1 100.63   -9 LegendNANA
07:00 Legend Double Dagger -1.6 -3.6 86 35 28 16.1 100.65   -8 LegendNANA
08:00 Legend Double Dagger -2.9 -4.5 89 34 43 11.3 100.67   -12 LegendNANA
09:00 Legend Double Dagger -2.2 -5.9 76 34 37 16.1 100.67   -10 LegendNANA
10:00 Legend Double Dagger -2.1 -6.2 74 33 37 16.1 100.68   -10 LegendNANA
11:00 Legend Double Dagger -2.3 -6.2 75 33 30 16.1 100.68   -9 LegendNANA
12:00 Legend Double Dagger -2.9 -7.3 72 33 41 16.1 100.68   -11 LegendNANA
13:00 Legend Double Dagger -2.6 -7.1 71 33 41 16.1 100.69   -11 LegendNANA
14:00 Legend Double Dagger -2.3 -6.7 72 32 43 16.1 100.67   -11 LegendNANA
15:00 Legend Double Dagger -1.6 -5.8 73 31 43 16.1 100.64   -10 Snow
16:00 Legend Double Dagger -1.4 -6.3 69 32 45 16.1 100.63   -10 Snow
17:00 Legend Double Dagger -1.3 -5.4 74 31 48 16.1 100.61   -10 Snow
18:00 Legend Double Dagger -1.6 -6.0 72 31 43 16.1 100.61   -10 LegendNANA
19:00 Legend Double Dagger -1.6 -6.1 71 31 50 16.1 100.57   -10 LegendNANA
20:00 Legend Double Dagger -1.5 -6.1 71 31 45 16.1 100.56   -10 LegendNANA
21:00 Legend Double Dagger -1.1 -5.5 72 31 41 16.1 100.52   -9 LegendNANA
22:00 Legend Double Dagger -1.5 -5.8 73 31 41 16.1 100.44   -9 LegendNANA
23:00 Legend Double Dagger -2.2 -5.9 76 31 41 16.1 100.42   -10 LegendNANA

Notes on Data Quality.

Legend

  • E = Estimated
  • M = Missing
  • NA = Not Available
  • ‡ = Partner data that is not subject to review by the National Climate Archives
Date modified: